Weather History for Glendive, MT

Change the Weather History Date:

Wednesday, December 5, 2012

  Actual Average Record
Temperature  
Mean Temperature 42 °F -  
Max Temperature 50 °F 33 °F 50 °F (2012)
Min Temperature 33 °F 14 °F -13 °F (2005)
Degree Days  
Heating Degree Days 24    
Moisture  
Dew Point 24 °F    
Average Humidity 53    
Maximum Humidity 65    
Minimum Humidity 44    
Precipitation  
Precipitation 0.00 in - - ()
Sea Level Pressure  
Sea Level Pressure 29.75 in    
Wind  
Wind Speed 10 mph (SW)    
Max Wind Speed 23 mph    
Max Gust Speed 33 mph    
Visibility 10 miles    
Events      
Averages and records for this station are not official NWS values.
T = Trace of Precipitation, MM = Missing Value Source: NWS Daily Summary

Daily Weather History Graph

Daily Weather History Graph

Search for Another Location

Airport:

Trip Planner

Search our weather history database for the weather conditions in past years. The results will help you decide how hot, cold, wet, or windy it might be!

Date:

Astronomy

Dec. 05, 2012 Rise Set
Actual Time 7:30 AM MST 4:10 PM MST
Civil Twilight 6:54 AM MST 4:45 PM MST
Nautical Twilight 6:16 AM MST 5:23 PM MST
Astronomical Twilight 5:39 AM MST 6:00 PM MST
Moon 11:22 PM MST (12/5) 11:36 AM MST (12/5)
Length of Visible Light 9h 50m
Length of Day
8h 40m
Waning Gibbous, 59% of the Moon is Illuminated
Dec 5
Waning Gibbous
Dec 6
Last Quarter
Dec 13
New
Dec 19
First Quarter
Dec 28
Full

Hourly Weather History & Observations

Time (MST) Temp. Windchill Dew Point Humidity Pressure Visibility Wind Dir Wind Speed Gust Speed Precip Events Conditions
12:15 AM 35.6 °F 29.2 °F 21.2 °F 56% 29.89 in 10.0 mi SSW 8.1 mph - N/A   Clear
12:35 AM 35.6 °F 29.2 °F 21.2 °F 56% 29.88 in 10.0 mi South 8.1 mph - N/A   Clear
12:55 AM 35.6 °F 29.9 °F 21.2 °F 56% 29.87 in 10.0 mi South 6.9 mph - N/A   Clear
1:15 AM 35.6 °F 29.9 °F 21.2 °F 56% 29.86 in 10.0 mi South 6.9 mph - N/A   Mostly Cloudy
1:35 AM 35.6 °F 29.2 °F 21.2 °F 56% 29.85 in 10.0 mi South 8.1 mph - N/A   Overcast
1:55 AM 35.6 °F 28.6 °F 21.2 °F 56% 29.84 in 10.0 mi South 9.2 mph - N/A   Overcast
2:15 AM 35.6 °F 29.2 °F 21.2 °F 56% 29.84 in 10.0 mi SSW 8.1 mph - N/A   Mostly Cloudy
2:35 AM 35.6 °F 29.9 °F 21.2 °F 56% 29.84 in 10.0 mi SW 6.9 mph - N/A   Clear
2:55 AM 35.6 °F 29.2 °F 21.2 °F 56% 29.82 in 10.0 mi SSW 8.1 mph - N/A   Clear
3:15 AM 33.8 °F 27.0 °F 21.2 °F 60% 29.81 in 10.0 mi SSW 8.1 mph - N/A   Clear
3:35 AM 33.8 °F 27.0 °F 21.2 °F 60% 29.80 in 10.0 mi SSW 8.1 mph - N/A   Partly Cloudy
3:55 AM 33.8 °F 26.4 °F 21.2 °F 60% 29.80 in 10.0 mi SW 9.2 mph - N/A   Clear
4:15 AM 33.8 °F 27.7 °F 21.2 °F 60% 29.79 in 10.0 mi SSW 6.9 mph - N/A   Clear
4:35 AM 35.6 °F 29.9 °F 21.2 °F 56% 29.78 in 10.0 mi South 6.9 mph - N/A   Clear
4:55 AM 33.8 °F 27.0 °F 21.2 °F 60% 29.77 in 10.0 mi SSW 8.1 mph - N/A   Clear
5:15 AM 33.8 °F 27.7 °F 21.2 °F 60% 29.77 in 10.0 mi South 6.9 mph - N/A   Clear
5:55 AM 35.6 °F 30.7 °F 21.2 °F 56% 29.76 in 10.0 mi SSE 5.8 mph - N/A   Clear
7:55 AM 33.8 °F 25.8 °F 23.0 °F 65% 29.72 in 10.0 mi SSW 10.4 mph - N/A   Clear
8:15 AM 35.6 °F 28.0 °F 24.8 °F 65% 29.71 in 10.0 mi SSW 10.4 mph - N/A   Clear
8:55 AM 37.4 °F 33.8 °F 24.8 °F 60% 29.70 in 10.0 mi South 4.6 mph - N/A   Clear
9:15 AM 39.2 °F 35.9 °F 26.6 °F 61% 29.70 in 10.0 mi South 4.6 mph - N/A   Clear
9:35 AM 39.2 °F 37.0 °F 26.6 °F 61% 29.69 in 10.0 mi SSE 3.5 mph - N/A   Clear
10:15 AM 41.0 °F - 26.6 °F 57% 29.67 in 10.0 mi Calm Calm - N/A   Clear
10:35 AM 42.8 °F 38.0 °F 28.4 °F 57% 29.67 in 10.0 mi South 8.1 mph - N/A   Clear
10:55 AM 44.6 °F 39.7 °F 28.4 °F 53% 29.66 in 10.0 mi South 9.2 mph - N/A   Clear
11:15 AM 46.4 °F 41.5 °F 28.4 °F 50% 29.65 in 10.0 mi SSW 10.4 mph - N/A   Clear
11:55 AM 48.2 °F - 30.2 °F 50% 29.63 in 10.0 mi SSW 13.8 mph 19.6 mph N/A   Clear
12:15 PM 48.2 °F - 28.4 °F 46% 29.63 in 10.0 mi SW 9.2 mph - N/A   Clear
12:35 PM 48.2 °F - 30.2 °F 50% 29.62 in 10.0 mi South 8.1 mph - N/A   Clear
12:55 PM 48.2 °F - 30.2 °F 50% 29.61 in 10.0 mi South 10.4 mph - N/A   Clear
1:15 PM 46.4 °F 41.1 °F 30.2 °F 53% 29.61 in 10.0 mi SSE 11.5 mph - N/A   Clear
1:35 PM 46.4 °F 41.5 °F 30.2 °F 53% 29.61 in 10.0 mi SSW 10.4 mph - N/A   Partly Cloudy
1:55 PM 46.4 °F 41.5 °F 28.4 °F 50% 29.61 in 10.0 mi SSW 10.4 mph - N/A   Scattered Clouds
2:15 PM 46.4 °F 41.5 °F 28.4 °F 50% 29.61 in 10.0 mi SSW 10.4 mph - N/A   Mostly Cloudy
2:35 PM 46.4 °F 42.4 °F 28.4 °F 50% 29.61 in 10.0 mi SSW 8.1 mph - N/A   Mostly Cloudy
2:55 PM 46.4 °F 42.9 °F 30.2 °F 53% 29.61 in 10.0 mi WSW 6.9 mph - N/A   Scattered Clouds
3:15 PM 48.2 °F - 30.2 °F 50% 29.61 in 10.0 mi SW 9.2 mph - N/A   Partly Cloudy
3:35 PM 46.4 °F 42.4 °F 30.2 °F 53% 29.62 in 10.0 mi SW 8.1 mph - N/A   Clear
3:55 PM 48.2 °F - 30.2 °F 50% 29.63 in 10.0 mi WSW 9.2 mph - N/A   Clear
4:15 PM 46.4 °F 41.9 °F 30.2 °F 53% 29.64 in 10.0 mi WSW 9.2 mph - N/A   Clear
4:35 PM 46.4 °F 41.9 °F 30.2 °F 53% 29.64 in 10.0 mi West 9.2 mph - N/A   Clear
5:15 PM 50.0 °F - 33.8 °F 54% 29.68 in 10.0 mi NW 23.0 mph 29.9 mph N/A   Clear
5:35 PM 48.2 °F - 30.2 °F 50% 29.71 in 10.0 mi NW 21.9 mph 31.1 mph N/A   Clear
5:55 PM 46.4 °F 38.7 °F 26.6 °F 46% 29.72 in 10.0 mi NW 20.7 mph 27.6 mph N/A   Clear
6:15 PM 44.6 °F 36.6 °F 26.6 °F 49% 29.73 in 10.0 mi NW 19.6 mph 26.5 mph N/A   Clear
6:55 PM 42.8 °F 33.8 °F 24.8 °F 49% 29.75 in 10.0 mi NW 21.9 mph 29.9 mph N/A   Partly Cloudy
7:15 PM 41.0 °F 31.6 °F 24.8 °F 53% 29.77 in 10.0 mi NW 20.7 mph 27.6 mph N/A   Clear
7:35 PM 39.2 °F 30.2 °F 24.8 °F 56% 29.78 in 10.0 mi NW 17.3 mph 21.9 mph N/A   Clear
7:55 PM 39.2 °F 30.2 °F 24.8 °F 56% 29.79 in 10.0 mi NW 17.3 mph 21.9 mph N/A   Clear
8:15 PM 39.2 °F 29.0 °F 23.0 °F 52% 29.80 in 10.0 mi NW 21.9 mph 31.1 mph N/A   Clear
8:35 PM 37.4 °F 27.2 °F 21.2 °F 52% 29.81 in 10.0 mi NW 19.6 mph 27.6 mph N/A   Clear
8:55 PM 39.2 °F 29.3 °F 21.2 °F 49% 29.82 in 10.0 mi WNW 20.7 mph 33.4 mph N/A   Clear
9:15 PM 37.4 °F 26.6 °F 21.2 °F 52% 29.83 in 10.0 mi WNW 21.9 mph 27.6 mph N/A   Clear
9:35 PM 37.4 °F 26.6 °F 19.4 °F 48% 29.83 in 10.0 mi WNW 21.9 mph 27.6 mph N/A   Clear
9:55 PM 37.4 °F 26.6 °F 17.6 °F 45% 29.84 in 10.0 mi WNW 21.9 mph 28.8 mph N/A   Clear
10:15 PM 37.4 °F 26.6 °F 17.6 °F 45% 29.85 in 10.0 mi WNW 21.9 mph 28.8 mph N/A   Clear
10:35 PM 35.6 °F 24.8 °F 17.6 °F 48% 29.87 in 10.0 mi West 19.6 mph 25.3 mph N/A   Clear
10:55 PM 35.6 °F 24.8 °F 17.6 °F 48% 29.88 in 10.0 mi West 19.6 mph 28.8 mph N/A   Clear
11:15 PM 35.6 °F 24.2 °F 17.6 °F 48% 29.86 in 10.0 mi WNW 21.9 mph 28.8 mph N/A   Clear
11:35 PM 35.6 °F 24.5 °F 15.8 °F 44% 29.86 in 10.0 mi WNW 20.7 mph 27.6 mph N/A   Clear
11:55 PM 35.6 °F 24.8 °F 17.6 °F 48% 29.87 in 10.0 mi WNW 19.6 mph 28.8 mph N/A   Clear